17-01-2023, 00:00:08,    249,    0.0,   -3.2,   0.00,   0.00,  988.1,   65.6, -999.0
17-01-2023, 00:00:18,    249,    0.0,   -3.3,   0.00,   0.00,  988.1,   65.5, -999.0
17-01-2023, 00:00:29,    249,    0.0,   -3.3,   0.00,   0.00,  988.1,   65.5, -999.0
17-01-2023, 00:00:38,    249,    0.0,   -3.2,   0.00,   0.00,  988.1,   65.5, -999.0
17-01-2023, 00:00:48,    249,    0.0,   -3.2,   0.00,   0.00,  988.1,   65.6, -999.0
17-01-2023, 00:00:58,    250,    0.0,   -3.3,   0.00,   0.00,  988.1,   65.6, -999.0
17-01-2023, 00:01:08,    249,    0.0,   -3.2,   0.00,   0.00,  988.1,   65.8, -999.0
17-01-2023, 00:01:18,    249,    0.0,   -3.3,   0.00,   0.00,  988.1,   65.8, -999.0
17-01-2023, 00:01:28,    249,    0.0,   -3.3,   0.00,   0.00,  988.1,   65.8, -999.0
17-01-2023, 00:01:38,    248,    0.0,   -3.3,   0.00,   0.00,  988.1,   65.7, -999.0
17-01-2023, 00:01:48,    249,    0.0,   -3.3,   0.00,   0.00,  988.1,   65.6, -999.0
17-01-2023, 00:01:58,    250,    0.0,   -3.3,   0.00,   0.00,  988.1,   65.7, -999.0
17-01-2023, 00:02:08,    249,    0.0,   -3.3,   0.00,   0.00,  988.1,   65.8, -999.0
17-01-2023, 00:02:18,    249,    0.0,   -3.3,   0.00,   0.00,  988.1,   65.6, -999.0
17-01-2023, 00:02:28,    249,    0.0,   -3.3,   0.00,   0.00,  988.1,   65.5, -999.0
17-01-2023, 00:02:38,    249,    0.0,   -3.3,   0.00,   0.00,  988.1,   65.6, -999.0
17-01-2023, 00:02:48,    249,    0.0,   -3.2,   0.00,   0.00,  988.0,   65.5, -999.0
17-01-2023, 00:02:58,    249,    0.0,   -3.4,   0.00,   0.00,  988.1,   65.5, -999.0
17-01-2023, 00:03:08,    249,    0.0,   -3.4,   0.00,   0.00,  988.1,   65.4, -999.0
17-01-2023, 00:03:18,    249,    0.0,   -3.3,   0.00,   0.00,  988.0,   65.6, -999.0
17-01-2023, 00:03:28,    249,    0.0,   -3.3,   0.00,   0.00,  988.0,   65.8, -999.0
17-01-2023, 00:03:38,    249,    0.0,   -3.3,   0.00,   0.00,  988.0,   65.8, -999.0
17-01-2023, 00:03:48,    249,    0.0,   -3.3,   0.00,   0.00,  988.0,   65.8, -999.0
17-01-2023, 00:03:58,    249,    0.0,   -3.2,   0.00,   0.00,  988.0,   65.8, -999.0
17-01-2023, 00:04:08,    249,    0.0,   -3.3,   0.00,   0.00,  988.0,   65.7, -999.0
17-01-2023, 00:04:18,    249,    0.0,   -3.3,   0.00,   0.00,  988.0,   65.9, -999.0
17-01-2023, 00:04:28,    249,    0.0,   -3.3,   0.00,   0.00,  988.0,   65.8, -999.0
17-01-2023, 00:04:38,    249,    0.0,   -3.3,   0.00,   0.00,  988.0,   65.8, -999.0
17-01-2023, 00:04:48,    249,    0.0,   -3.5,   0.00,   0.00,  988.0,   65.7, -999.0
17-01-2023, 00:04:58,    249,    0.0,   -3.4,   0.00,   0.00,  988.0,   65.7, -999.0
17-01-2023, 00:05:08,    249,    0.0,   -3.3,   0.00,   0.00,  988.0,   65.7, -999.0
17-01-2023, 00:05:18,    248,    0.0,   -3.3,   0.00,   0.00,  988.0,   65.7, -999.0
17-01-2023, 00:05:28,    249,    0.0,   -3.3,   0.00,   0.00,  988.0,   65.8, -999.0
17-01-2023, 00:05:38,    249,    0.0,   -3.5,   0.00,   0.00,  988.0,   65.8, -999.0
17-01-2023, 00:05:48,    249,    0.0,   -3.4,   0.00,   0.00,  988.0,   65.9, -999.0
17-01-2023, 00:05:58,    249,    0.0,   -3.4,   0.00,   0.00,  988.0,   65.7, -999.0
17-01-2023, 00:06:08,    249,    0.0,   -3.3,   0.00,   0.00,  988.1,   65.6, -999.0
17-01-2023, 00:06:18,    249,    0.0,   -3.4,   0.00,   0.00,  988.0,   65.7, -999.0
17-01-2023, 00:06:28,    249,    0.0,   -3.4,   0.00,   0.00,  988.0,   65.7, -999.0
17-01-2023, 00:06:37,    249,    0.0,   -3.4,   0.00,   0.00,  988.0,   65.9, -999.0
17-01-2023, 00:06:48,    249,    0.0,   -3.3,   0.00,   0.00,  988.0,   65.8, -999.0
17-01-2023, 00:06:58,    249,    0.0,   -3.4,   0.00,   0.00,  988.0,   66.0, -999.0
17-01-2023, 00:07:08,    249,    0.0,   -3.4,   0.00,   0.00,  988.0,   66.0, -999.0
17-01-2023, 00:07:17,    249,    0.0,   -3.4,   0.00,   0.00,  988.0,   65.9, -999.0
17-01-2023, 00:07:28,    249,    0.0,   -3.3,   0.00,   0.00,  988.0,   65.8, -999.0
17-01-2023, 00:07:38,    249,    0.0,   -3.4,   0.00,   0.00,  988.0,   65.9, -999.0
17-01-2023, 00:07:47,    249,    0.0,   -3.5,   0.00,   0.00,  988.0,   65.8, -999.0
17-01-2023, 00:07:57,    249,    0.0,   -3.4,   0.00,   0.00,  988.0,   65.7, -999.0
17-01-2023, 00:08:08,    249,    0.0,   -3.4,   0.00,   0.00,  988.0,   65.7, -999.0
17-01-2023, 00:08:17,    249,    0.0,   -3.4,   0.00,   0.00,  988.0,   65.7, -999.0
17-01-2023, 00:08:27,    249,    0.0,   -3.4,   0.00,   0.00,  988.0,   65.6, -999.0
17-01-2023, 00:08:37,    249,    0.0,   -3.5,   0.00,   0.00,  988.0,   65.7, -999.0
17-01-2023, 00:08:48,    249,    0.0,   -3.5,   0.00,   0.00,  988.0,   65.7, -999.0
17-01-2023, 00:08:57,    249,    0.0,   -3.4,   0.00,   0.00,  988.0,   65.7, -999.0
17-01-2023, 00:09:07,    249,    0.0,   -3.4,   0.00,   0.00,  988.0,   65.7, -999.0
17-01-2023, 00:09:18,    249,    0.0,   -3.4,   0.00,   0.00,  988.0,   65.8, -999.0
17-01-2023, 00:09:27,    249,    0.0,   -3.4,   0.00,   0.00,  988.0,   65.8, -999.0
17-01-2023, 00:09:37,    249,    0.0,   -3.4,   0.00,   0.00,  988.0,   65.9, -999.0
17-01-2023, 00:09:47,    249,    0.0,   -3.4,   0.00,   0.00,  988.0,   65.8, -999.0
17-01-2023, 00:09:57,    248,    0.0,   -3.5,   0.00,   0.00,  988.0,   65.7, -999.0
17-01-2023, 00:10:07,    249,    0.0,   -3.5,   0.00,   0.00,  988.0,   65.7, -999.0
17-01-2023, 00:10:17,    249,    0.0,   -3.5,   0.00,   0.00,  988.0,   65.7, -999.0
17-01-2023, 00:10:27,    248,    0.0,   -3.5,   0.00,   0.00,  988.0,   65.9, -999.0
17-01-2023, 00:10:37,    249,    0.0,   -3.3,   0.00,   0.00,  988.0,   66.0, -999.0
17-01-2023, 00:10:47,    249,    0.0,   -3.5,   0.00,   0.00,  988.0,   66.1, -999.0
17-01-2023, 00:10:57,    249,    0.0,   -3.5,   0.00,   0.00,  988.0,   66.0, -999.0
17-01-2023, 00:11:07,    249,    0.0,   -3.4,   0.00,   0.00,  988.0,   66.0, -999.0
17-01-2023, 00:11:17,    249,    0.0,   -3.4,   0.00,   0.00,  988.0,   65.8, -999.0
17-01-2023, 00:11:27,    249,    0.0,   -3.4,   0.00,   0.00,  988.0,   65.8, -999.0
17-01-2023, 00:11:37,    249,    0.0,   -3.4,   0.00,   0.00,  988.0,   65.8, -999.0
17-01-2023, 00:11:47,    249,    0.0,   -3.5,   0.00,   0.00,  988.0,   65.8, -999.0
17-01-2023, 00:11:57,    249,    0.0,   -3.4,   0.00,   0.00,  988.0,   65.9, -999.0
17-01-2023, 00:12:07,    249,    0.0,   -3.6,   0.00,   0.00,  988.0,   65.9, -999.0
17-01-2023, 00:12:17,    249,    0.0,   -3.5,   0.00,   0.00,  988.0,   65.9, -999.0
17-01-2023, 00:12:27,    249,    0.0,   -3.4,   0.00,   0.00,  988.0,   66.0, -999.0
17-01-2023, 00:12:37,    249,    0.0,   -3.4,   0.00,   0.00,  988.0,   66.0, -999.0
17-01-2023, 00:12:47,    249,    0.0,   -3.4,   0.00,   0.00,  988.0,   66.0, -999.0
17-01-2023, 00:12:57,    249,    0.0,   -3.4,   0.00,   0.00,  988.0,   66.1, -999.0
17-01-2023, 00:13:07,    249,    0.0,   -3.5,   0.00,   0.00,  988.0,   66.1, -999.0
17-01-2023, 00:13:17,    251,    0.0,   -3.3,   0.00,   0.00,  988.0,   66.1, -999.0
17-01-2023, 00:13:27,    249,    0.0,   -3.2,   0.00,   0.00,  988.0,   66.1, -999.0
17-01-2023, 00:13:37,    249,    0.0,   -3.4,   0.00,   0.00,  988.0,   66.3, -999.0
17-01-2023, 00:13:47,    249,    0.0,   -3.4,   0.00,   0.00,  988.0,   66.2, -999.0
17-01-2023, 00:13:57,    249,    0.0,   -3.4,   0.00,   0.00,  988.1,   66.2, -999.0
17-01-2023, 00:14:07,    249,    0.0,   -3.4,   0.00,   0.00,  988.1,   66.2, -999.0
17-01-2023, 00:14:17,    249,    0.0,   -3.5,   0.00,   0.00,  988.0,   66.2, -999.0
17-01-2023, 00:14:26,    249,    0.0,   -3.5,   0.00,   0.00,  988.0,   66.2, -999.0
17-01-2023, 00:14:37,    249,    0.0,   -3.5,   0.00,   0.00,  988.1,   66.2, -999.0
17-01-2023, 00:14:47,    249,    0.0,   -3.5,   0.00,   0.00,  988.1,   66.2, -999.0
17-01-2023, 00:14:57,    249,    0.0,   -3.5,   0.00,   0.00,  988.1,   66.1, -999.0
17-01-2023, 00:15:06,    249,    0.0,   -3.5,   0.00,   0.00,  988.1,   66.2, -999.0
17-01-2023, 00:15:17,    249,    0.0,   -3.5,   0.00,   0.00,  988.0,   66.2, -999.0
17-01-2023, 00:15:27,    249,    0.0,   -3.5,   0.00,   0.00,  988.0,   66.2, -999.0
17-01-2023, 00:15:36,    249,    0.0,   -3.6,   0.00,   0.00,  988.1,   66.1, -999.0
17-01-2023, 00:15:46,    249,    0.0,   -3.5,   0.00,   0.00,  988.0,   66.2, -999.0
17-01-2023, 00:15:57,    249,    0.0,   -3.5,   0.00,   0.00,  988.0,   66.2, -999.0
17-01-2023, 00:16:06,    249,    0.0,   -3.5,   0.00,   0.00,  988.1,   66.3, -999.0
17-01-2023, 00:16:17,    249,    0.0,   -3.6,   0.00,   0.00,  988.0,   66.3, -999.0
17-01-2023, 00:16:26,    249,    0.0,   -3.5,   0.00,   0.00,  988.0,   66.3, -999.0
17-01-2023, 00:16:37,    249,    0.0,   -3.6,   0.00,   0.00,  988.1,   66.3, -999.0
17-01-2023, 00:16:46,    249,    0.0,   -3.5,   0.00,   0.00,  988.0,   66.3, -999.0
17-01-2023, 00:16:56,    249,    0.0,   -3.6,   0.00,   0.00,  988.0,   66.3, -999.0
17-01-2023, 00:17:06,    249,    0.0,   -3.5,   0.00,   0.00,  988.0,   66.3, -999.0
17-01-2023, 00:17:16,    249,    0.0,   -3.5,   0.00,   0.00,  988.0,   66.4, -999.0
17-01-2023, 00:17:26,    249,    0.0,   -3.5,   0.00,   0.00,  988.0,   66.4, -999.0
17-01-2023, 00:17:36,    249,    0.0,   -3.6,   0.00,   0.00,  988.0,   66.6, -999.0
17-01-2023, 00:17:46,    249,    0.0,   -3.6,   0.00,   0.00,  988.0,   66.5, -999.0
17-01-2023, 00:17:56,    249,    0.0,   -3.5,   0.00,   0.00,  988.0,   66.5, -999.0
17-01-2023, 00:18:06,    249,    0.0,   -3.6,   0.00,   0.00,  988.0,   66.6, -999.0
17-01-2023, 00:18:16,    249,    0.0,   -3.5,   0.00,   0.00,  988.0,   66.6, -999.0
17-01-2023, 00:18:26,    249,    0.0,   -3.5,   0.00,   0.00,  988.1,   66.7, -999.0
17-01-2023, 00:18:36,    248,    0.0,   -3.5,   0.00,   0.00,  988.0,   66.7, -999.0
17-01-2023, 00:18:46,    249,    0.0,   -3.5,   0.00,   0.00,  988.0,   66.6, -999.0
17-01-2023, 00:18:56,    249,    0.0,   -3.6,   0.00,   0.00,  988.0,   66.6, -999.0
17-01-2023, 00:19:06,    249,    0.0,   -3.6,   0.00,   0.00,  988.1,   66.6, -999.0
17-01-2023, 00:19:16,    249,    0.0,   -3.6,   0.00,   0.00,  988.0,   66.5, -999.0
17-01-2023, 00:19:26,    249,    0.0,   -3.6,   0.00,   0.00,  988.0,   66.6, -999.0
17-01-2023, 00:19:36,    249,    0.0,   -3.5,   0.00,   0.00,  988.0,   66.5, -999.0
17-01-2023, 00:19:46,    249,    0.0,   -3.6,   0.00,   0.00,  988.0,   66.6, -999.0
17-01-2023, 00:19:56,    249,    0.0,   -3.6,   0.00,   0.00,  988.0,   66.6, -999.0
17-01-2023, 00:20:06,    249,    0.0,   -3.6,   0.00,   0.00,  988.0,   66.6, -999.0
17-01-2023, 00:20:16,    249,    0.0,   -3.6,   0.00,   0.00,  988.0,   66.6, -999.0
17-01-2023, 00:20:26,    249,    0.0,   -3.6,   0.00,   0.00,  988.0,   66.7, -999.0
17-01-2023, 00:20:36,    249,    0.0,   -3.6,   0.00,   0.00,  988.0,   66.7, -999.0
17-01-2023, 00:20:46,    249,    0.0,   -3.6,   0.00,   0.00,  988.0,   66.7, -999.0
17-01-2023, 00:20:56,    249,    0.0,   -3.6,   0.00,   0.00,  988.0,   66.7, -999.0
17-01-2023, 00:21:06,    248,    0.0,   -3.6,   0.00,   0.00,  988.0,   66.8, -999.0
17-01-2023, 00:21:16,    249,    0.0,   -3.6,   0.00,   0.00,  988.0,   66.8, -999.0
17-01-2023, 00:21:26,    249,    0.0,   -3.6,   0.00,   0.00,  988.0,   66.7, -999.0
17-01-2023, 00:21:36,    249,    0.0,   -3.7,   0.00,   0.00,  988.0,   66.9, -999.0
17-01-2023, 00:21:46,    249,    0.0,   -3.8,   0.00,   0.00,  988.0,   66.8, -999.0
17-01-2023, 00:21:56,    249,    0.0,   -3.6,   0.00,   0.00,  988.0,   66.9, -999.0
17-01-2023, 00:22:07,    249,    0.0,   -3.6,   0.00,   0.00,  988.0,   67.0, -999.0
17-01-2023, 00:22:16,    249,    0.0,   -3.6,   0.00,   0.00,  988.0,   67.0, -999.0
17-01-2023, 00:22:26,    249,    0.0,   -3.6,   0.00,   0.00,  988.0,   67.0, -999.0
17-01-2023, 00:22:36,    249,    0.0,   -3.6,   0.00,   0.00,  988.0,   67.0, -999.0
17-01-2023, 00:22:46,    249,    0.0,   -3.6,   0.00,   0.00,  988.0,   67.2, -999.0
17-01-2023, 00:22:56,    249,    0.0,   -3.8,   0.00,   0.00,  988.0,   67.2, -999.0
17-01-2023, 00:23:06,    249,    0.0,   -3.7,   0.00,   0.00,  988.0,   67.1, -999.0
17-01-2023, 00:23:16,    249,    0.0,   -3.7,   0.00,   0.00,  988.0,   67.2, -999.0
17-01-2023, 00:23:25,    248,    0.0,   -3.6,   0.00,   0.00,  988.0,   67.2, -999.0
17-01-2023, 00:23:36,    249,    0.0,   -3.6,   0.00,   0.00,  988.0,   67.2, -999.0
17-01-2023, 00:23:46,    249,    0.0,   -3.6,   0.00,   0.00,  988.0,   67.3, -999.0
17-01-2023, 00:23:55,    249,    0.0,   -3.6,   0.00,   0.00,  988.0,   67.4, -999.0
17-01-2023, 00:24:05,    249,    0.0,   -3.7,   0.00,   0.00,  988.0,   67.4, -999.0
17-01-2023, 00:24:16,    249,    0.0,   -3.7,   0.00,   0.00,  988.0,   67.4, -999.0
17-01-2023, 00:24:26,    249,    0.0,   -3.6,   0.00,   0.00,  988.0,   67.4, -999.0
17-01-2023, 00:24:35,    249,    0.0,   -3.7,   0.00,   0.00,  988.0,   67.4, -999.0
17-01-2023, 00:24:45,    249,    0.0,   -3.6,   0.00,   0.00,  988.0,   67.3, -999.0
17-01-2023, 00:24:56,    249,    0.0,   -3.6,   0.00,   0.00,  988.0,   67.5, -999.0
17-01-2023, 00:25:05,    249,    0.0,   -3.6,   0.00,   0.00,  988.0,   67.5, -999.0
17-01-2023, 00:25:15,    249,    0.0,   -3.7,   0.00,   0.00,  988.0,   67.5, -999.0
17-01-2023, 00:25:25,    249,    0.0,   -3.7,   0.00,   0.00,  988.0,   67.5, -999.0
17-01-2023, 00:25:35,    249,    0.0,   -3.6,   0.00,   0.00,  988.0,   67.6, -999.0
17-01-2023, 00:25:45,    249,    0.0,   -3.6,   0.00,   0.00,  988.0,   67.6, -999.0
17-01-2023, 00:25:55,    249,    0.0,   -3.6,   0.00,   0.00,  988.0,   67.6, -999.0
17-01-2023, 00:26:06,    249,    0.0,   -3.5,   0.00,   0.00,  988.0,   67.6, -999.0
17-01-2023, 00:26:15,    249,    0.0,   -3.5,   0.00,   0.00,  988.0,   67.7, -999.0
17-01-2023, 00:26:25,    249,    0.0,   -3.6,   0.00,   0.00,  988.0,   67.8, -999.0
17-01-2023, 00:26:35,    249,    0.0,   -3.6,   0.00,   0.00,  988.0,   67.7, -999.0
17-01-2023, 00:26:45,    249,    0.0,   -3.6,   0.00,   0.00,  988.0,   67.6, -999.0
17-01-2023, 00:26:55,    249,    0.0,   -3.6,   0.00,   0.00,  988.0,   67.6, -999.0
17-01-2023, 00:27:05,    249,    0.0,   -3.5,   0.00,   0.00,  988.0,   67.7, -999.0
17-01-2023, 00:27:15,    249,    0.0,   -3.6,   0.00,   0.00,  988.0,   67.9, -999.0
17-01-2023, 00:27:25,    249,    0.0,   -3.5,   0.00,   0.00,  988.0,   67.8, -999.0
17-01-2023, 00:27:35,    249,    0.0,   -3.6,   0.00,   0.00,  988.0,   67.8, -999.0
17-01-2023, 00:27:45,    249,    0.0,   -3.6,   0.00,   0.00,  988.0,   67.8, -999.0
17-01-2023, 00:27:55,    249,    0.0,   -3.5,   0.00,   0.00,  988.0,   67.7, -999.0
17-01-2023, 00:28:05,    249,    0.0,   -3.6,   0.00,   0.00,  988.0,   67.8, -999.0
17-01-2023, 00:28:15,    249,    0.0,   -3.7,   0.00,   0.00,  988.0,   67.8, -999.0
17-01-2023, 00:28:25,    249,    0.0,   -3.5,   0.00,   0.00,  988.0,   67.7, -999.0
17-01-2023, 00:28:35,    250,    0.0,   -3.7,   0.00,   0.00,  988.0,   67.7, -999.0
17-01-2023, 00:28:45,    249,    0.0,   -3.6,   0.00,   0.00,  988.0,   67.6, -999.0
17-01-2023, 00:28:55,    249,    0.0,   -3.6,   0.00,   0.00,  987.9,   67.8, -999.0
17-01-2023, 00:29:05,    249,    0.0,   -3.5,   0.00,   0.00,  987.9,   67.7, -999.0
17-01-2023, 00:29:15,    249,    0.0,   -3.6,   0.00,   0.00,  987.9,   67.9, -999.0
17-01-2023, 00:29:25,    249,    0.0,   -3.7,   0.00,   0.00,  987.9,   67.8, -999.0
17-01-2023, 00:29:35,    249,    0.0,   -3.5,   0.00,   0.00,  987.9,   68.0, -999.0
17-01-2023, 00:29:45,    249,    0.0,   -3.5,   0.00,   0.00,  987.9,   68.1, -999.0
17-01-2023, 00:29:55,    249,    0.0,   -3.5,   0.00,   0.00,  987.9,   68.2, -999.0
17-01-2023, 00:30:05,    249,    0.0,   -3.5,   0.00,   0.00,  987.9,   68.2, -999.0
17-01-2023, 00:30:15,    249,    0.0,   -3.5,   0.00,   0.00,  987.9,   68.2, -999.0
17-01-2023, 00:30:25,    249,    0.0,   -3.5,   0.00,   0.00,  987.9,   68.1, -999.0
17-01-2023, 00:30:35,    249,    0.0,   -3.4,   0.00,   0.00,  987.9,   68.1, -999.0
17-01-2023, 00:30:45,    249,    0.0,   -3.6,   0.00,   0.00,  987.9,   68.0, -999.0
17-01-2023, 00:30:55,    249,    0.0,   -3.6,   0.00,   0.00,  987.9,   68.1, -999.0
17-01-2023, 00:31:05,    250,    0.0,   -3.4,   0.00,   0.00,  987.9,   68.0, -999.0
17-01-2023, 00:31:14,    249,    0.0,   -3.6,   0.00,   0.00,  988.0,   67.9, -999.0
17-01-2023, 00:31:25,    249,    0.0,   -3.6,   0.00,   0.00,  987.9,   67.8, -999.0
17-01-2023, 00:31:35,    249,    0.0,   -3.6,   0.00,   0.00,  987.9,   67.9, -999.0
17-01-2023, 00:31:44,    249,    0.0,   -3.6,   0.00,   0.00,  987.9,   67.9, -999.0
17-01-2023, 00:31:54,    249,    0.0,   -3.6,   0.00,   0.00,  987.9,   67.8, -999.0
17-01-2023, 00:32:05,    249,    0.0,   -3.5,   0.00,   0.00,  987.9,   67.9, -999.0
17-01-2023, 00:32:15,    249,    0.0,   -3.6,   0.00,   0.00,  987.9,   67.8, -999.0
17-01-2023, 00:32:24,    249,    0.0,   -3.6,   0.00,   0.00,  987.9,   67.7, -999.0
17-01-2023, 00:32:35,    249,    0.0,   -3.7,   0.00,   0.00,  987.9,   67.8, -999.0
17-01-2023, 00:32:45,    249,    0.0,   -3.6,   0.00,   0.00,  987.9,   67.8, -999.0
17-01-2023, 00:32:54,    249,    0.0,   -3.6,   0.00,   0.00,  987.9,   67.9, -999.0
17-01-2023, 00:33:05,    249,    0.0,   -3.7,   0.00,   0.00,  987.9,   68.0, -999.0
17-01-2023, 00:33:15,    249,    0.0,   -3.7,   0.00,   0.00,  987.9,   68.0, -999.0
17-01-2023, 00:33:24,    249,    0.0,   -3.7,   0.00,   0.00,  987.9,   67.9, -999.0
17-01-2023, 00:33:34,    249,    0.0,   -3.7,   0.00,   0.00,  987.9,   67.8, -999.0
17-01-2023, 00:33:44,    249,    0.0,   -3.8,   0.00,   0.00,  987.9,   67.6, -999.0
17-01-2023, 00:33:55,    249,    0.0,   -3.7,   0.00,   0.00,  987.9,   67.7, -999.0
17-01-2023, 00:34:04,    249,    0.0,   -3.7,   0.00,   0.00,  987.9,   67.7, -999.0
17-01-2023, 00:34:14,    249,    0.0,   -3.8,   0.00,   0.00,  987.9,   67.7, -999.0
17-01-2023, 00:34:24,    249,    0.0,   -3.8,   0.00,   0.00,  987.9,   67.6, -999.0
17-01-2023, 00:34:34,    249,    0.0,   -3.8,   0.00,   0.00,  987.9,   67.6, -999.0
17-01-2023, 00:34:44,    249,    0.0,   -3.8,   0.00,   0.00,  987.9,   67.8, -999.0
17-01-2023, 00:34:54,    249,    0.0,   -3.8,   0.00,   0.00,  987.9,   68.0, -999.0
17-01-2023, 00:35:04,    249,    0.0,   -3.7,   0.00,   0.00,  987.9,   68.2, -999.0
17-01-2023, 00:35:14,    249,    0.0,   -3.7,   0.00,   0.00,  987.9,   68.2, -999.0
17-01-2023, 00:35:24,    249,    0.0,   -3.6,   0.00,   0.00,  987.9,   68.4, -999.0
17-01-2023, 00:35:34,    249,    0.0,   -3.7,   0.00,   0.00,  987.9,   68.3, -999.0
17-01-2023, 00:35:44,    249,    0.0,   -3.7,   0.00,   0.00,  987.9,   68.3, -999.0
17-01-2023, 00:35:56,    249,    0.0,   -3.7,   0.00,   0.00,  987.9,   68.3, -999.0
17-01-2023, 00:36:04,    249,    0.0,   -3.7,   0.00,   0.00,  987.9,   68.2, -999.0
17-01-2023, 00:36:14,    250,    0.0,   -3.7,   0.00,   0.00,  987.9,   68.2, -999.0
17-01-2023, 00:36:24,    249,    0.0,   -3.6,   0.00,   0.00,  987.9,   68.2, -999.0
17-01-2023, 00:36:34,    249,    0.0,   -3.7,   0.00,   0.00,  987.9,   68.2, -999.0
17-01-2023, 00:36:44,    249,    0.0,   -3.7,   0.00,   0.00,  987.9,   68.2, -999.0
17-01-2023, 00:36:54,    249,    0.0,   -3.7,   0.00,   0.00,  987.9,   68.1, -999.0
17-01-2023, 00:37:04,    249,    0.0,   -3.7,   0.00,   0.00,  987.9,   68.1, -999.0
17-01-2023, 00:37:14,    249,    0.0,   -3.7,   0.00,   0.00,  987.9,   68.2, -999.0
17-01-2023, 00:37:24,    249,    0.0,   -3.7,   0.00,   0.00,  987.9,   68.4, -999.0
17-01-2023, 00:37:34,    249,    0.0,   -3.6,   0.00,   0.00,  987.9,   68.4, -999.0
17-01-2023, 00:37:44,    249,    0.0,   -3.6,   0.00,   0.00,  987.9,   68.4, -999.0
17-01-2023, 00:37:54,    249,    0.0,   -3.6,   0.00,   0.00,  987.9,   68.6, -999.0
17-01-2023, 00:38:04,    249,    0.0,   -3.7,   0.00,   0.00,  987.9,   68.6, -999.0
17-01-2023, 00:38:14,    249,    0.0,   -3.6,   0.00,   0.00,  987.9,   68.5, -999.0
17-01-2023, 00:38:24,    249,    0.0,   -3.6,   0.00,   0.00,  987.9,   68.5, -999.0
17-01-2023, 00:38:34,    249,    0.0,   -3.6,   0.00,   0.00,  987.9,   68.6, -999.0
17-01-2023, 00:38:44,    249,    0.0,   -3.6,   0.00,   0.00,  987.9,   68.5, -999.0
17-01-2023, 00:38:54,    249,    0.0,   -3.5,   0.00,   0.00,  987.9,   68.3, -999.0
17-01-2023, 00:39:04,    249,    0.0,   -3.6,   0.00,   0.00,  987.9,   68.3, -999.0
17-01-2023, 00:39:14,    249,    0.0,   -3.7,   0.00,   0.00,  987.9,   68.3, -999.0
17-01-2023, 00:39:24,    249,    0.0,   -3.6,   0.00,   0.00,  987.9,   68.3, -999.0
17-01-2023, 00:39:33,    249,    0.0,   -3.6,   0.00,   0.00,  987.9,   68.2, -999.0
17-01-2023, 00:39:44,    249,    0.0,   -3.6,   0.00,   0.00,  987.9,   68.3, -999.0
17-01-2023, 00:39:54,    249,    0.0,   -3.6,   0.00,   0.00,  987.9,   68.2, -999.0
17-01-2023, 00:40:03,    249,    0.0,   -3.6,   0.00,   0.00,  987.9,   68.1, -999.0
17-01-2023, 00:40:13,    249,    0.0,   -3.6,   0.00,   0.00,  987.9,   68.1, -999.0
17-01-2023, 00:40:24,    249,    0.0,   -3.6,   0.00,   0.00,  987.9,   68.1, -999.0
17-01-2023, 00:40:33,    249,    0.0,   -3.7,   0.00,   0.00,  987.9,   68.1, -999.0
17-01-2023, 00:40:43,    249,    0.0,   -3.8,   0.00,   0.00,  987.9,   68.1, -999.0
17-01-2023, 00:40:53,    249,    0.0,   -3.7,   0.00,   0.00,  987.9,   68.1, -999.0
17-01-2023, 00:41:04,    249,    0.0,   -3.7,   0.00,   0.00,  987.9,   68.2, -999.0
17-01-2023, 00:41:13,    249,    0.0,   -3.7,   0.00,   0.00,  987.9,   68.1, -999.0
17-01-2023, 00:41:23,    249,    0.0,   -3.8,   0.00,   0.00,  987.9,   68.2, -999.0
17-01-2023, 00:41:34,    249,    0.0,   -3.8,   0.00,   0.00,  987.9,   68.3, -999.0
17-01-2023, 00:41:43,    249,    0.0,   -3.8,   0.00,   0.00,  987.9,   68.2, -999.0
17-01-2023, 00:41:53,    249,    0.0,   -3.8,   0.00,   0.00,  987.9,   68.2, -999.0
17-01-2023, 00:42:03,    249,    0.0,   -3.8,   0.00,   0.00,  987.9,   68.2, -999.0
17-01-2023, 00:42:13,    249,    0.0,   -3.8,   0.00,   0.00,  987.9,   68.2, -999.0
17-01-2023, 00:42:23,    249,    0.0,   -3.9,   0.00,   0.00,  987.9,   68.1, -999.0
17-01-2023, 00:42:33,    249,    0.0,   -4.0,   0.00,   0.00,  987.9,   68.3, -999.0
17-01-2023, 00:42:43,    249,    0.0,   -3.9,   0.00,   0.00,  987.9,   68.1, -999.0
17-01-2023, 00:42:53,    249,    0.0,   -3.8,   0.00,   0.00,  987.9,   68.2, -999.0
17-01-2023, 00:43:03,    249,    0.0,   -3.9,   0.00,   0.00,  987.9,   68.3, -999.0
17-01-2023, 00:43:13,    249,    0.0,   -3.8,   0.00,   0.00,  987.9,   68.3, -999.0
17-01-2023, 00:43:23,    249,    0.0,   -3.8,   0.00,   0.00,  987.9,   68.4, -999.0
17-01-2023, 00:43:33,    249,    0.0,   -3.8,   0.00,   0.00,  987.9,   68.6, -999.0
17-01-2023, 00:43:43,    249,    0.0,   -3.8,   0.00,   0.00,  988.0,   68.6, -999.0
17-01-2023, 00:43:53,    249,    0.0,   -3.8,   0.00,   0.00,  987.9,   68.8, -999.0
17-01-2023, 00:44:03,    249,    0.0,   -3.8,   0.00,   0.00,  987.9,   68.9, -999.0
17-01-2023, 00:44:13,    249,    0.0,   -3.8,   0.00,   0.00,  987.9,   69.1, -999.0
17-01-2023, 00:44:23,    249,    0.0,   -3.8,   0.00,   0.00,  987.9,   69.1, -999.0
17-01-2023, 00:44:33,    249,    0.0,   -3.7,   0.00,   0.00,  988.0,   69.1, -999.0
17-01-2023, 00:44:43,    249,    0.0,   -3.7,   0.00,   0.00,  988.0,   69.1, -999.0
17-01-2023, 00:44:53,    249,    0.0,   -3.7,   0.00,   0.00,  987.9,   69.2, -999.0
17-01-2023, 00:45:03,    249,    0.0,   -3.7,   0.00,   0.00,  988.0,   69.3, -999.0
17-01-2023, 00:45:13,    249,    0.0,   -3.6,   0.00,   0.00,  987.9,   69.2, -999.0
17-01-2023, 00:45:23,    249,    0.0,   -3.6,   0.00,   0.00,  987.9,   69.3, -999.0
17-01-2023, 00:45:33,    249,    0.0,   -3.6,   0.00,   0.00,  987.9,   69.3, -999.0
17-01-2023, 00:45:43,    249,    0.0,   -3.6,   0.00,   0.00,  987.9,   69.3, -999.0
17-01-2023, 00:45:53,    249,    0.0,   -3.7,   0.00,   0.00,  988.0,   69.4, -999.0
17-01-2023, 00:46:03,    249,    0.0,   -3.6,   0.00,   0.00,  987.9,   69.5, -999.0
17-01-2023, 00:46:13,    249,    0.0,   -3.6,   0.00,   0.00,  987.9,   69.6, -999.0
17-01-2023, 00:46:23,    249,    0.0,   -3.6,   0.00,   0.00,  987.9,   69.6, -999.0
17-01-2023, 00:46:33,    249,    0.0,   -3.5,   0.00,   0.00,  988.0,   69.7, -999.0
17-01-2023, 00:46:43,    249,    0.0,   -3.5,   0.00,   0.00,  987.9,   69.9, -999.0
17-01-2023, 00:46:53,    249,    0.0,   -3.4,   0.00,   0.00,  987.9,   70.0, -999.0